"read_dt","SO2 (ppb)","flags","PMT voltage (V)","lamp voltage (V)","lamp intensity (Hz)","internal temp (C)","react chamber temp (C)","sample flow (l/min)","pres (mmHg)","SO2 bkg (ppb)","SO2 coefficient"
2014-07-16 00:00:00,1802E-3,5C000000,-0724,0833,12114,028.3,045.5,0.481,732.9,01.19,0.508
2014-07-16 00:01:00,1762E-3,5C000000,-0724,0833,12229,028.3,045.5,0.481,732.9,01.19,0.508
2014-07-16 00:02:00,1890E-3,5C000000,-0724,0833,12050,028.3,045.5,0.481,732.9,01.19,0.508
2014-07-16 00:03:00,1816E-3,5C000000,-0724,0834,12094,028.3,045.5,0.481,732.8,01.19,0.508
2014-07-16 00:04:00,1948E-3,5C000000,-0724,0832,12008,028.3,045.5,0.481,732.8,01.19,0.508
2014-07-16 00:05:00,1821E-3,5C000000,-0724,0832,11835,028.4,045.5,0.481,732.8,01.19,0.508
2014-07-16 00:06:00,1797E-3,5C000000,-0724,0832,12328,028.4,045.5,0.481,732.8,01.19,0.508
2014-07-16 00:07:00,1725E-3,5C000000,-0724,0833,12197,028.4,045.5,0.481,732.8,01.19,0.508
2014-07-16 00:08:00,1760E-3,5C000000,-0724,0833,12058,028.4,045.5,0.481,732.8,01.19,0.508
2014-07-16 00:09:00,1844E-3,5C000000,-0724,0832,12179,028.4,045.5,0.481,732.8,01.19,0.508
2014-07-16 00:10:00,1773E-3,5C000000,-0724,0834,12184,028.4,045.5,0.481,732.8,01.19,0.508
2014-07-16 00:11:00,1792E-3,5C000000,-0724,0832,12193,028.4,045.5,0.481,732.8,01.19,0.508
2014-07-16 00:12:00,1955E-3,5C000000,-0724,0833,12224,028.4,045.5,0.481,732.8,01.19,0.508
2014-07-16 00:13:00,1892E-3,5C000000,-0724,0833,12201,028.4,045.5,0.481,732.8,01.19,0.508
2014-07-16 00:14:00,1688E-3,5C000000,-0724,0833,12051,028.4,045.5,0.481,732.8,01.19,0.508
2014-07-16 00:15:00,1852E-3,5C000000,-0724,0834,12206,028.4,045.5,0.481,732.7,01.19,0.508
2014-07-16 00:16:00,1732E-3,5C000000,-0724,0833,11997,028.4,045.5,0.481,732.7,01.19,0.508
2014-07-16 00:17:00,1829E-3,5C000000,-0724,0833,12301,028.4,045.5,0.481,732.7,01.19,0.508
2014-07-16 00:18:00,1813E-3,5C000000,-0724,0833,12016,028.4,045.5,0.481,732.7,01.19,0.508
2014-07-16 00:19:00,1833E-3,5C000000,-0724,0832,12132,028.4,045.5,0.481,732.7,01.19,0.508
2014-07-16 00:20:00,1741E-3,5C000000,-0724,0832,12154,028.4,045.5,0.481,732.7,01.19,0.508
2014-07-16 00:21:00,1778E-3,5C000000,-0724,0833,12204,028.4,045.5,0.481,732.7,01.19,0.508
2014-07-16 00:22:00,1895E-3,5C000000,-0724,0833,11994,028.4,045.5,0.481,732.6,01.19,0.508
2014-07-16 00:23:00,1716E-3,5C000000,-0724,0833,12142,028.5,045.5,0.481,732.6,01.19,0.508
2014-07-16 00:24:00,1864E-3,5C000000,-0724,0833,12144,028.5,045.5,0.481,732.6,01.19,0.508
2014-07-16 00:25:00,1838E-3,5C000000,-0724,0832,12217,028.4,045.5,0.481,732.6,01.19,0.508
2014-07-16 00:26:00,1865E-3,5C000000,-0724,0834,12238,028.5,045.5,0.481,732.7,01.19,0.508
2014-07-16 00:27:00,1827E-3,5C000000,-0724,0833,12150,028.5,045.5,0.481,732.7,01.19,0.508
2014-07-16 00:28:00,1883E-3,5C000000,-0724,0833,12339,028.5,045.5,0.481,732.7,01.19,0.508
2014-07-16 00:29:00,1857E-3,5C000000,-0724,0833,12223,028.5,045.5,0.481,732.7,01.19,0.508
2014-07-16 00:30:00,1832E-3,5C000000,-0724,0833,12116,028.5,045.5,0.481,732.7,01.19,0.508
2014-07-16 00:31:00,1891E-3,5C000000,-0724,0833,12186,028.5,045.5,0.481,732.8,01.19,0.508
2014-07-16 00:32:00,1860E-3,5C000000,-0724,0833,12098,028.5,045.5,0.481,732.7,01.19,0.508
2014-07-16 00:33:00,1830E-3,5C000000,-0724,0833,12041,028.5,045.5,0.481,732.7,01.19,0.508
2014-07-16 00:34:00,1685E-3,5C000000,-0724,0834,11867,028.5,045.5,0.481,732.7,01.19,0.508
2014-07-16 00:35:00,1851E-3,5C000000,-0724,0833,12215,028.5,045.5,0.481,732.7,01.19,0.508
2014-07-16 00:36:00,1811E-3,5C000000,-0724,0833,12045,028.5,045.5,0.481,732.7,01.19,0.508
2014-07-16 00:37:00,1774E-3,5C000000,-0724,0834,12177,028.5,045.5,0.481,732.6,01.19,0.508
2014-07-16 00:38:00,2012E-3,5C000000,-0724,0832,12079,028.5,045.5,0.481,732.6,01.19,0.508
2014-07-16 00:39:00,1882E-3,5C000000,-0724,0833,12330,028.5,045.5,0.480,732.6,01.19,0.508
2014-07-16 00:40:00,1829E-3,5C000000,-0724,0833,12084,028.5,045.5,0.481,732.6,01.19,0.508
2014-07-16 00:41:00,1933E-3,5C000000,-0724,0834,12272,028.5,045.5,0.481,732.6,01.19,0.508
2014-07-16 00:42:00,1893E-3,5C000000,-0724,0833,12322,028.5,045.5,0.481,732.6,01.19,0.508
2014-07-16 00:43:00,1992E-3,5C000000,-0724,0833,12117,028.5,045.5,0.481,732.6,01.19,0.508
2014-07-16 00:44:00,1840E-3,5C000000,-0724,0833,12284,028.5,045.5,0.481,732.6,01.19,0.508
2014-07-16 00:45:00,1830E-3,5C000000,-0724,0833,12179,028.5,045.5,0.481,732.6,01.19,0.508
2014-07-16 00:46:00,1808E-3,5C000000,-0724,0833,12204,028.6,045.5,0.481,732.5,01.19,0.508
2014-07-16 00:47:00,1784E-3,5C000000,-0724,0833,12164,028.6,045.5,0.481,732.5,01.19,0.508
2014-07-16 00:48:00,1805E-3,5C000000,-0724,0834,12339,028.6,045.5,0.480,732.5,01.19,0.508
2014-07-16 00:49:00,1721E-3,5C000000,-0724,0833,12206,028.6,045.5,0.481,732.5,01.19,0.508
2014-07-16 00:50:00,1701E-3,5C000000,-0724,0833,12231,028.5,045.5,0.481,732.5,01.19,0.508
2014-07-16 00:51:00,1823E-3,5C000000,-0724,0833,11941,028.6,045.5,0.481,732.5,01.19,0.508
2014-07-16 00:52:00,1748E-3,5C000000,-0724,0833,11941,028.6,045.5,0.480,732.5,01.19,0.508
2014-07-16 00:53:00,1824E-3,5C000000,-0724,0833,12164,028.6,045.5,0.481,732.5,01.19,0.508
2014-07-16 00:54:00,2027E-3,5C000000,-0724,0832,11978,028.6,045.5,0.481,732.5,01.19,0.508
2014-07-16 00:55:00,1880E-3,5C000000,-0724,0834,12335,028.6,045.5,0.481,732.5,01.19,0.508
2014-07-16 00:56:00,1872E-3,5C000000,-0724,0834,12325,028.6,045.5,0.480,732.5,01.19,0.508
2014-07-16 00:57:00,1823E-3,5C000000,-0724,0833,12069,028.6,045.5,0.481,732.5,01.19,0.508
2014-07-16 00:58:00,1720E-3,5C000000,-0724,0832,12117,028.6,045.5,0.481,732.4,01.19,0.508
2014-07-16 00:59:00,1697E-3,5C000000,-0724,0833,12170,028.6,045.5,0.480,732.4,01.19,0.508
2014-07-16 01:00:00,1763E-3,5C000000,-0724,0833,12162,028.6,045.5,0.480,732.4,01.19,0.508
2014-07-16 01:01:00,1799E-3,5C000000,-0724,0833,12105,028.6,045.5,0.481,732.4,01.19,0.508
2014-07-16 01:02:00,1921E-3,5C000000,-0724,0833,12212,028.6,045.5,0.481,732.4,01.19,0.508
2014-07-16 01:03:00,2006E-3,5C000000,-0724,0834,12079,028.6,045.5,0.480,732.4,01.19,0.508
2014-07-16 01:04:00,1818E-3,5C000000,-0724,0833,12184,028.6,045.5,0.480,732.4,01.19,0.508
2014-07-16 01:05:00,1825E-3,5C000000,-0724,0833,12207,028.6,045.5,0.481,732.3,01.19,0.508
2014-07-16 01:06:00,1671E-3,5C000000,-0724,0835,12285,028.6,045.5,0.481,732.3,01.19,0.508
2014-07-16 01:07:00,1955E-3,5C000000,-0724,0833,12022,028.6,045.5,0.480,732.3,01.19,0.508
2014-07-16 01:08:00,1847E-3,5C000000,-0724,0833,12268,028.6,045.5,0.480,732.4,01.19,0.508
2014-07-16 01:09:00,1886E-3,5C000000,-0724,0833,12136,028.6,045.5,0.481,732.4,01.19,0.508
2014-07-16 01:10:00,1890E-3,5C000000,-0724,0834,12042,028.6,045.5,0.481,732.3,01.19,0.508
2014-07-16 01:11:00,1804E-3,5C000000,-0724,0833,12342,028.6,045.5,0.480,732.3,01.19,0.508
2014-07-16 01:12:00,1814E-3,5C000000,-0724,0834,12186,028.6,045.5,0.480,732.3,01.19,0.508
2014-07-16 01:13:00,1876E-3,5C000000,-0724,0834,12280,028.6,045.5,0.481,732.3,01.19,0.508
2014-07-16 01:14:00,1877E-3,5C000000,-0724,0835,12249,028.6,045.5,0.481,732.3,01.19,0.508
2014-07-16 01:15:00,1803E-3,5C000000,-0724,0833,12213,028.6,045.5,0.480,732.3,01.19,0.508
2014-07-16 01:16:00,1825E-3,5C000000,-0724,0834,11909,028.6,045.5,0.480,732.3,01.19,0.508
2014-07-16 01:17:00,1757E-3,5C000000,-0724,0833,11681,028.6,045.5,0.481,732.3,01.19,0.508
2014-07-16 01:18:00,1864E-3,5C000000,-0724,0832,12193,028.6,045.5,0.481,732.3,01.19,0.508
2014-07-16 01:19:00,1799E-3,5C000000,-0724,0832,12194,028.6,045.5,0.480,732.3,01.19,0.508
2014-07-16 01:20:00,1792E-3,5C000000,-0724,0834,12140,028.6,045.5,0.480,732.3,01.19,0.508
2014-07-16 01:21:00,1783E-3,5C000000,-0724,0834,12232,028.6,045.5,0.481,732.3,01.19,0.508
2014-07-16 01:22:00,1814E-3,5C000000,-0724,0834,12190,028.6,045.5,0.481,732.4,01.19,0.508
2014-07-16 01:23:00,1732E-3,5C000000,-0724,0835,12281,028.6,045.5,0.481,732.4,01.19,0.508
2014-07-16 01:24:00,1780E-3,5C000000,-0724,0834,12143,028.6,045.5,0.480,732.4,01.19,0.508
2014-07-16 01:25:00,1763E-3,5C000000,-0724,0833,12103,028.6,045.5,0.481,732.4,01.19,0.508
2014-07-16 01:26:00,1909E-3,5C000000,-0724,0833,12260,028.6,045.5,0.481,732.4,01.19,0.508
2014-07-16 01:27:00,1826E-3,5C000000,-0724,0834,12243,028.6,045.5,0.480,732.4,01.19,0.508
2014-07-16 01:28:00,1740E-3,5C000000,-0724,0833,12137,028.7,045.5,0.480,732.4,01.19,0.508
2014-07-16 01:29:00,1681E-3,5C000000,-0724,0836,12300,028.6,045.5,0.481,732.4,01.19,0.508
2014-07-16 01:30:00,1837E-3,5C000000,-0724,0833,12125,028.6,045.5,0.481,732.4,01.19,0.508
2014-07-16 01:31:00,1812E-3,5C000000,-0724,0833,12199,028.6,045.5,0.480,732.4,01.19,0.508
2014-07-16 01:32:00,1912E-3,5C000000,-0724,0833,12245,028.6,045.5,0.480,732.3,01.19,0.508
2014-07-16 01:33:00,1897E-3,5C000000,-0724,0833,11964,028.6,045.5,0.481,732.3,01.19,0.508
2014-07-16 01:34:00,1822E-3,5C000000,-0724,0834,12146,028.6,045.5,0.481,732.2,01.19,0.508
2014-07-16 01:35:00,1943E-3,5C000000,-0724,0832,12155,028.6,045.5,0.480,732.2,01.19,0.508
2014-07-16 01:36:00,1802E-3,5C000000,-0724,0833,12078,028.6,045.5,0.480,732.2,01.19,0.508
2014-07-16 01:37:00,1862E-3,5C000000,-0724,0834,11998,028.6,045.5,0.481,732.2,01.19,0.508
2014-07-16 01:38:00,1797E-3,5C000000,-0724,0832,11990,028.6,045.5,0.481,732.2,01.19,0.508
2014-07-16 01:39:00,1821E-3,5C000000,-0724,0833,12133,028.6,045.5,0.480,732.1,01.19,0.508
2014-07-16 01:40:00,1872E-3,5C000000,-0724,0833,12141,028.6,045.5,0.480,732.1,01.19,0.508
2014-07-16 01:41:00,1896E-3,5C000000,-0724,0833,12239,028.6,045.5,0.481,732.1,01.19,0.508
2014-07-16 01:42:00,1875E-3,5C000000,-0724,0833,12181,028.6,045.5,0.481,732.1,01.19,0.508
2014-07-16 01:43:00,1737E-3,5C000000,-0724,0833,12149,028.6,045.5,0.480,732.1,01.19,0.508
2014-07-16 01:44:00,1928E-3,5C000000,-0724,0832,12269,028.6,045.5,0.480,732.2,01.19,0.508
2014-07-16 01:45:00,1856E-3,5C000000,-0724,0833,12237,028.6,045.5,0.481,732.2,01.19,0.508
2014-07-16 01:46:00,1942E-3,5C000000,-0724,0834,12189,028.6,045.5,0.481,732.2,01.19,0.508
2014-07-16 01:47:00,1851E-3,5C000000,-0724,0834,12328,028.6,045.5,0.480,732.2,01.19,0.508
2014-07-16 01:48:00,1950E-3,5C000000,-0724,0833,12189,028.6,045.5,0.480,732.1,01.19,0.508
2014-07-16 01:49:00,1768E-3,5C000000,-0724,0832,12179,028.6,045.5,0.481,732.1,01.19,0.508
2014-07-16 01:50:00,1850E-3,5C000000,-0724,0832,12016,028.6,045.5,0.481,732.0,01.19,0.508
2014-07-16 01:51:00,1801E-3,5C000000,-0724,0834,12364,028.6,045.5,0.480,732.0,01.19,0.508
2014-07-16 01:52:00,1905E-3,5C000000,-0724,0834,11884,028.6,045.5,0.480,732.0,01.19,0.508
2014-07-16 01:53:00,1803E-3,5C000000,-0724,0834,12313,028.6,045.5,0.480,732.0,01.19,0.508
2014-07-16 01:54:00,1786E-3,5C000000,-0724,0832,12147,028.6,045.5,0.481,732.0,01.19,0.508
2014-07-16 01:55:00,1945E-3,5C000000,-0724,0833,12262,028.6,045.5,0.480,732.0,01.19,0.508
2014-07-16 01:56:00,1826E-3,5C000000,-0724,0833,12155,028.6,045.5,0.480,732.0,01.19,0.508
2014-07-16 01:57:00,1847E-3,5C000000,-0724,0833,12051,028.6,045.5,0.480,732.0,01.19,0.508
2014-07-16 01:58:00,1833E-3,5C000000,-0724,0833,12261,028.6,045.5,0.481,732.0,01.19,0.508
2014-07-16 01:59:00,1827E-3,5C000000,-0724,0833,12249,028.6,045.5,0.481,732.0,01.19,0.508
2014-07-16 02:00:00,1746E-3,5C000000,-0724,0833,12180,028.6,045.5,0.480,732.0,01.19,0.508
2014-07-16 02:01:00,1957E-3,5C000000,-0724,0834,12319,028.6,045.5,0.480,732.0,01.19,0.508
2014-07-16 02:02:00,1774E-3,5C000000,-0724,0834,12132,028.6,045.5,0.481,731.9,01.19,0.508
2014-07-16 02:03:00,1908E-3,5C000000,-0724,0833,12165,028.6,045.5,0.481,731.9,01.19,0.508
2014-07-16 02:04:00,1782E-3,5C000000,-0724,0833,12286,028.6,045.5,0.480,731.9,01.19,0.508
2014-07-16 02:05:00,1772E-3,5C000000,-0724,0834,12068,028.6,045.5,0.480,731.9,01.19,0.508
2014-07-16 02:06:00,1812E-3,5C000000,-0724,0833,12029,028.6,045.5,0.480,731.9,01.19,0.508
2014-07-16 02:07:00,1786E-3,5C000000,-0724,0833,12285,028.6,045.5,0.481,731.8,01.19,0.508
2014-07-16 02:08:00,1704E-3,5C000000,-0724,0833,12097,028.6,045.5,0.480,731.8,01.19,0.508
2014-07-16 02:09:00,1982E-3,5C000000,-0724,0834,12114,028.6,045.5,0.480,731.8,01.19,0.508
2014-07-16 02:10:00,1856E-3,5C000000,-0724,0833,11978,028.6,045.5,0.480,731.8,01.19,0.508
2014-07-16 02:11:00,1862E-3,5C000000,-0724,0833,12188,028.6,045.5,0.481,731.8,01.19,0.508
2014-07-16 02:12:00,1772E-3,5C000000,-0724,0833,12186,028.6,045.5,0.481,731.8,01.19,0.508
2014-07-16 02:13:00,1734E-3,5C000000,-0724,0834,12194,028.6,045.5,0.480,731.7,01.19,0.508
2014-07-16 02:14:00,1876E-3,5C000000,-0724,0834,12062,028.6,045.5,0.480,731.7,01.19,0.508
2014-07-16 02:15:00,1968E-3,5C000000,-0724,0834,12310,028.6,045.5,0.480,731.7,01.19,0.508
2014-07-16 02:16:00,1831E-3,5C000000,-0724,0834,12123,028.6,045.5,0.481,731.7,01.19,0.508
2014-07-16 02:17:00,1868E-3,5C000000,-0724,0834,12236,028.6,045.5,0.481,731.7,01.19,0.508
2014-07-16 02:18:00,1789E-3,5C000000,-0724,0834,11811,028.6,045.5,0.480,731.7,01.19,0.508
2014-07-16 02:19:00,1921E-3,5C000000,-0724,0834,12328,028.6,045.5,0.480,731.7,01.19,0.508
2014-07-16 02:20:00,1856E-3,5C000000,-0724,0833,12093,028.6,045.5,0.480,731.7,01.19,0.508
2014-07-16 02:21:00,1665E-3,5C000000,-0724,0833,12116,028.6,045.5,0.481,731.7,01.19,0.508
2014-07-16 02:22:00,1787E-3,5C000000,-0724,0833,12249,028.6,045.5,0.480,731.7,01.19,0.508
2014-07-16 02:23:00,1723E-3,5C000000,-0724,0833,12237,028.6,045.5,0.480,731.7,01.19,0.508
2014-07-16 02:24:00,1791E-3,5C000000,-0724,0834,12121,028.6,045.5,0.480,731.7,01.19,0.508
2014-07-16 02:25:00,1904E-3,5C000000,-0724,0833,12165,028.6,045.5,0.480,731.7,01.19,0.508
2014-07-16 02:26:00,1935E-3,5C000000,-0724,0833,12228,028.7,045.5,0.481,731.7,01.19,0.508
2014-07-16 02:27:00,1951E-3,5C000000,-0724,0833,12094,028.6,045.5,0.480,731.6,01.19,0.508
2014-07-16 02:28:00,1914E-3,5C000000,-0724,0833,12200,028.6,045.5,0.480,731.6,01.19,0.508
2014-07-16 02:29:00,1863E-3,5C000000,-0724,0833,12120,028.6,045.5,0.480,731.6,01.19,0.508
2014-07-16 02:30:00,1773E-3,5C000000,-0724,0833,12320,028.6,045.5,0.480,731.6,01.19,0.508
2014-07-16 02:31:00,1867E-3,5C000000,-0724,0833,12171,028.6,045.5,0.481,731.6,01.19,0.508
2014-07-16 02:32:00,1808E-3,5C000000,-0724,0833,12166,028.6,045.5,0.480,731.6,01.19,0.508
2014-07-16 02:33:00,1805E-3,5C000000,-0724,0833,12026,028.6,045.5,0.480,731.6,01.19,0.508
2014-07-16 02:34:00,1944E-3,5C000000,-0724,0833,12220,028.6,045.5,0.480,731.6,01.19,0.508
2014-07-16 02:35:00,1677E-3,5C000000,-0724,0834,12356,028.6,045.5,0.480,731.7,01.19,0.508
2014-07-16 02:36:00,1879E-3,5C000000,-0724,0834,12197,028.6,045.5,0.480,731.7,01.19,0.508
2014-07-16 02:37:00,1801E-3,5C000000,-0724,0834,12266,028.7,045.5,0.480,731.6,01.19,0.508
2014-07-16 02:38:00,1905E-3,5C000000,-0724,0834,12092,028.6,045.5,0.480,731.6,01.19,0.508
2014-07-16 02:39:00,1977E-3,5C000000,-0724,0833,12219,028.7,045.5,0.480,731.6,01.19,0.508
2014-07-16 02:40:00,1809E-3,5C000000,-0724,0832,12068,028.6,045.5,0.481,731.6,01.19,0.508
2014-07-16 02:41:00,1714E-3,5C000000,-0724,0833,12038,028.7,045.5,0.480,731.6,01.19,0.508
2014-07-16 02:42:00,1853E-3,5C000000,-0724,0832,12049,028.7,045.5,0.480,731.6,01.19,0.508
2014-07-16 02:43:00,1985E-3,5C000000,-0724,0834,12196,028.7,045.5,0.480,731.6,01.19,0.508
2014-07-16 02:44:00,1921E-3,5C000000,-0724,0833,12046,028.7,045.5,0.480,731.6,01.19,0.508
2014-07-16 02:45:00,1805E-3,5C000000,-0724,0833,12165,028.7,045.5,0.481,731.6,01.19,0.508
2014-07-16 02:46:00,1902E-3,5C000000,-0724,0832,12319,028.7,045.5,0.480,731.6,01.19,0.508
2014-07-16 02:47:00,1867E-3,5C000000,-0724,0833,12150,028.6,045.5,0.480,731.6,01.19,0.508
2014-07-16 02:48:00,1916E-3,5C000000,-0724,0833,12191,028.7,045.5,0.480,731.6,01.19,0.508
2014-07-16 02:49:00,1818E-3,5C000000,-0724,0834,12193,028.7,045.5,0.480,731.6,01.19,0.508
2014-07-16 02:50:00,1853E-3,5C000000,-0724,0833,12107,028.7,045.5,0.480,731.6,01.19,0.508
2014-07-16 02:51:00,1890E-3,5C000000,-0724,0833,11985,028.7,045.5,0.480,731.6,01.19,0.508
2014-07-16 02:52:00,1846E-3,5C000000,-0724,0834,11982,028.7,045.5,0.480,731.6,01.19,0.508
2014-07-16 02:53:00,1900E-3,5C000000,-0724,0833,12045,028.7,045.5,0.480,731.6,01.19,0.508
2014-07-16 02:54:00,1805E-3,5C000000,-0724,0833,12145,028.7,045.5,0.480,731.6,01.19,0.508
2014-07-16 02:55:00,1826E-3,5C000000,-0724,0833,12037,028.7,045.5,0.480,731.6,01.19,0.508
2014-07-16 02:56:00,1797E-3,5C000000,-0724,0834,12077,028.7,045.5,0.480,731.6,01.19,0.508
2014-07-16 02:57:00,1803E-3,5C000000,-0724,0834,12311,028.7,045.5,0.480,731.6,01.19,0.508
2014-07-16 02:58:00,1914E-3,5C000000,-0724,0833,12165,028.7,045.5,0.480,731.6,01.19,0.508
2014-07-16 02:59:00,1856E-3,5C000000,-0724,0834,12241,028.7,045.5,0.480,731.6,01.19,0.508
2014-07-16 03:00:00,1872E-3,5C000000,-0724,0833,12049,028.7,045.5,0.480,731.6,01.19,0.508
2014-07-16 03:01:00,1772E-3,5C000000,-0724,0833,12363,028.7,045.5,0.480,731.6,01.19,0.508
2014-07-16 03:02:00,1791E-3,5C000000,-0724,0834,11957,028.7,045.5,0.480,731.6,01.19,0.508
2014-07-16 03:03:00,1991E-3,5C000000,-0724,0834,12375,028.7,045.5,0.480,731.6,01.19,0.508
2014-07-16 03:04:00,1648E-3,5C000000,-0724,0833,12179,028.7,045.5,0.480,731.6,01.19,0.508
2014-07-16 03:05:00,1864E-3,5C000000,-0724,0834,12108,028.7,045.5,0.480,731.5,01.19,0.508
2014-07-16 03:06:00,1728E-3,5C000000,-0724,0832,12099,028.8,045.5,0.480,731.5,01.19,0.508
2014-07-16 03:07:00,1838E-3,5C000000,-0724,0833,12024,028.8,045.5,0.480,731.5,01.19,0.508
2014-07-16 03:08:00,1790E-3,5C000000,-0724,0833,12172,028.8,045.5,0.480,731.5,01.19,0.508
2014-07-16 03:09:00,1886E-3,5C000000,-0724,0833,12190,028.8,045.5,0.480,731.5,01.19,0.508
2014-07-16 03:10:00,1890E-3,5C000000,-0724,0832,12208,028.8,045.5,0.480,731.6,01.19,0.508
2014-07-16 03:11:00,1782E-3,5C000000,-0724,0834,12107,028.8,045.5,0.480,731.6,01.19,0.508
2014-07-16 03:12:00,1836E-3,5C000000,-0724,0833,12109,028.8,045.5,0.480,731.6,01.19,0.508
2014-07-16 03:13:00,2002E-3,5C000000,-0724,0834,11817,028.8,045.5,0.480,731.6,01.19,0.508
2014-07-16 03:14:00,1843E-3,5C000000,-0724,0833,12125,028.8,045.5,0.480,731.5,01.19,0.508
2014-07-16 03:15:00,1688E-3,5C000000,-0724,0834,12057,028.8,045.5,0.480,731.5,01.19,0.508
2014-07-16 03:16:00,1800E-3,5C000000,-0724,0833,12290,028.8,045.5,0.480,731.5,01.19,0.508
2014-07-16 03:17:00,1937E-3,5C000000,-0724,0833,12198,028.8,045.5,0.480,731.5,01.19,0.508
2014-07-16 03:18:00,1989E-3,5C000000,-0724,0834,12213,028.8,045.5,0.480,731.5,01.19,0.508
2014-07-16 03:19:00,1799E-3,5C000000,-0724,0833,12173,028.8,045.5,0.480,731.5,01.19,0.508
2014-07-16 03:20:00,1939E-3,5C000000,-0724,0834,12322,028.8,045.5,0.480,731.6,01.19,0.508
2014-07-16 03:21:00,1781E-3,5C000000,-0724,0833,11952,028.8,045.5,0.480,731.5,01.19,0.508
2014-07-16 03:22:00,1775E-3,5C000000,-0724,0833,12126,028.9,045.5,0.480,731.5,01.19,0.508
2014-07-16 03:23:00,1817E-3,5C000000,-0724,0833,12103,028.9,045.5,0.480,731.5,01.19,0.508
2014-07-16 03:24:00,1799E-3,5C000000,-0724,0834,12245,028.9,045.5,0.480,731.5,01.19,0.508
2014-07-16 03:25:00,1897E-3,5C000000,-0724,0832,12188,028.9,045.5,0.480,731.5,01.19,0.508
2014-07-16 03:26:00,1807E-3,5C000000,-0724,0833,11955,028.9,045.5,0.480,731.5,01.19,0.508
2014-07-16 03:27:00,1741E-3,5C000000,-0724,0833,12231,028.9,045.5,0.480,731.5,01.19,0.508
2014-07-16 03:28:00,1910E-3,5C000000,-0724,0834,12284,028.9,045.5,0.480,731.5,01.19,0.508
2014-07-16 03:29:00,1874E-3,5C000000,-0724,0833,12109,028.9,045.5,0.480,731.5,01.19,0.508
2014-07-16 03:30:00,1936E-3,5C000000,-0724,0833,12109,028.9,045.5,0.480,731.5,01.19,0.508
2014-07-16 03:31:00,1918E-3,5C000000,-0724,0832,12083,028.9,045.5,0.479,731.5,01.19,0.508
2014-07-16 03:32:00,1911E-3,5C000000,-0724,0834,12137,028.9,045.5,0.480,731.5,01.19,0.508
2014-07-16 03:33:00,1762E-3,5C000000,-0724,0834,12272,028.9,045.5,0.480,731.5,01.19,0.508
2014-07-16 03:34:00,1793E-3,5C000000,-0724,0834,12080,029.0,045.5,0.479,731.4,01.19,0.508
2014-07-16 03:35:00,1903E-3,5C000000,-0724,0833,12089,029.0,045.5,0.480,731.4,01.19,0.508
2014-07-16 03:36:00,1992E-3,5C000000,-0724,0835,12150,029.0,045.5,0.480,731.4,01.19,0.508
2014-07-16 03:37:00,1815E-3,5C000000,-0724,0833,12113,029.0,045.5,0.480,731.4,01.19,0.508
2014-07-16 03:38:00,1808E-3,5C000000,-0724,0833,12195,029.0,045.5,0.479,731.4,01.19,0.508
2014-07-16 03:39:00,1817E-3,5C000000,-0724,0834,12039,029.0,045.5,0.479,731.4,01.19,0.508
2014-07-16 03:40:00,1911E-3,5C000000,-0724,0832,11990,029.0,045.5,0.480,731.4,01.19,0.508
2014-07-16 03:41:00,1758E-3,5C000000,-0724,0833,12143,029.0,045.5,0.480,731.4,01.19,0.508
2014-07-16 03:42:00,1830E-3,5C000000,-0724,0833,12072,029.0,045.5,0.479,731.3,01.19,0.508
2014-07-16 03:43:00,1854E-3,5C000000,-0724,0833,12266,029.1,045.5,0.480,731.4,01.19,0.508
2014-07-16 03:44:00,1915E-3,5C000000,-0724,0833,12171,029.1,045.5,0.480,731.4,01.19,0.508
2014-07-16 03:45:00,1908E-3,5C000000,-0724,0833,12236,029.1,045.5,0.479,731.4,01.19,0.508
2014-07-16 03:46:00,1900E-3,5C000000,-0724,0833,12014,029.1,045.5,0.479,731.4,01.19,0.508
2014-07-16 03:47:00,1843E-3,5C000000,-0724,0832,12314,029.1,045.5,0.480,731.4,01.19,0.508
2014-07-16 03:48:00,1953E-3,5C000000,-0724,0832,12083,029.1,045.5,0.480,731.4,01.19,0.508
2014-07-16 03:49:00,1840E-3,5C000000,-0724,0833,12216,029.1,045.5,0.479,731.3,01.19,0.508
2014-07-16 03:50:00,1857E-3,5C000000,-0724,0833,11991,029.1,045.5,0.479,731.4,01.19,0.508
2014-07-16 03:51:00,1882E-3,5C000000,-0724,0833,12139,029.1,045.5,0.480,731.4,01.19,0.508
2014-07-16 03:52:00,1813E-3,5C000000,-0724,0833,12057,029.1,045.5,0.479,731.5,01.19,0.508
2014-07-16 03:53:00,1742E-3,5C000000,-0724,0834,12204,029.1,045.5,0.479,731.4,01.19,0.508
2014-07-16 03:54:00,1719E-3,5C000000,-0724,0832,12234,029.3,045.5,0.479,731.4,01.19,0.508
2014-07-16 03:55:00,1860E-3,5C000000,-0724,0833,12128,029.3,045.5,0.480,731.4,01.19,0.508
2014-07-16 03:56:00,1876E-3,5C000000,-0724,0833,12320,029.3,045.5,0.479,731.3,01.19,0.508
2014-07-16 03:57:00,1797E-3,5C000000,-0724,0833,12203,029.4,045.6,0.479,731.3,01.19,0.508
2014-07-16 03:58:00,1832E-3,5C000000,-0724,0833,12192,029.5,045.5,0.479,731.4,01.19,0.508
2014-07-16 03:59:00,1706E-3,5C000000,-0724,0833,12119,029.5,045.5,0.479,731.3,01.19,0.508
2014-07-16 04:00:00,1783E-3,5C000000,-0724,0834,12233,029.6,045.5,0.479,731.3,01.19,0.508
2014-07-16 04:01:00,1819E-3,5C000000,-0724,0833,12095,029.6,045.5,0.478,731.3,01.19,0.508
2014-07-16 04:02:00,1884E-3,5C000000,-0724,0834,12225,029.7,045.6,0.479,731.3,01.19,0.508
2014-07-16 04:03:00,1825E-3,5C000000,-0724,0834,12027,029.7,045.5,0.479,731.3,01.19,0.508
2014-07-16 04:04:00,1812E-3,5C000000,-0724,0832,12167,029.7,045.5,0.478,731.3,01.19,0.508
2014-07-16 04:05:00,1785E-3,5C000000,-0724,0833,12082,029.7,045.6,0.479,731.3,01.19,0.508
2014-07-16 04:06:00,1810E-3,5C000000,-0724,0835,12268,029.8,045.6,0.479,731.3,01.19,0.508
2014-07-16 04:07:00,1832E-3,5C000000,-0724,0834,11941,029.8,045.6,0.478,731.2,01.19,0.508
2014-07-16 04:08:00,1844E-3,5C000000,-0724,0835,12197,029.9,045.6,0.479,731.2,01.19,0.508
2014-07-16 04:09:00,1802E-3,5C000000,-0724,0833,12224,029.9,045.6,0.478,731.2,01.19,0.508
2014-07-16 04:10:00,1757E-3,5C000000,-0724,0833,12117,029.9,045.6,0.478,731.2,01.19,0.508
2014-07-16 04:11:00,1828E-3,5C000000,-0724,0833,12124,029.9,045.6,0.478,731.2,01.19,0.508
2014-07-16 04:12:00,1841E-3,5C000000,-0724,0833,12403,030.0,045.6,0.478,731.1,01.19,0.508
2014-07-16 04:13:00,1795E-3,5C000000,-0724,0834,11946,030.0,045.6,0.478,731.2,01.19,0.508
2014-07-16 04:14:00,1907E-3,5C000000,-0724,0833,12159,030.0,045.6,0.478,731.1,01.19,0.508
2014-07-16 04:15:00,1836E-3,5C000000,-0724,0834,12193,030.1,045.6,0.478,731.1,01.19,0.508
2014-07-16 04:16:00,1875E-3,5C000000,-0724,0833,12294,030.1,045.5,0.478,731.1,01.19,0.508
2014-07-16 04:17:00,1716E-3,5C000000,-0724,0834,12361,030.0,045.6,0.478,731.1,01.19,0.508
2014-07-16 04:18:00,1824E-3,5C000000,-0724,0834,12203,030.0,045.6,0.478,731.1,01.19,0.508
2014-07-16 04:19:00,1832E-3,5C000000,-0724,0833,12147,030.0,045.6,0.478,731.1,01.19,0.508
2014-07-16 04:20:00,1894E-3,5C000000,-0724,0833,12200,029.9,045.5,0.478,731.1,01.19,0.508